User: anonymous   Login
Location: Unspecified
(0.0000°N, 0.0000°E)
Time: 05:59:55
(UTC+02:00)
Language:

Cosmos 1536 - Orbit

View from above orbital plane
View from above orbital plane
View from above satellite
View from above satellite

Ground track
Ground track

The orbit data is extracted from the following two-line orbital elements,

1 14699U 84013A   16182.85258007  .00000134  00000-0  74151-5 0  9999
2 14699  82.5268 309.5875 0013339 167.5958 192.5599 15.04743942760258
Epoch (UTC): 30 June 2016 20:27:42
Eccentricity: 0.0013339
inclination: 82.5268°
perigee height: 543 km
apogee height: 561 km
right ascension of ascending node: 309.5875°
argument of perigee: 167.5958°
revolutions per day: 15.04743942
mean anomaly at epoch: 192.5599°
orbit number at epoch: 76025

The dashed part of the orbit path shows where the satellite is in the earth's shadow,  

DLR